Voltar ao catálogo

COSMOS 1275 DEB

AtivoPO
NORAD 12706·DEBRIS·🇷🇺 Russia

Lançado Jun 4, 1981 de Plesetsk Cosmodrome

Loading…

Próximas Passagens (próximas 24 horas)

TLE

AtualizadoSource: Space-Track

Época: Sep 13, 2026, 22:20 UTC

1 12706U 81053BA  26256.93082463  .00000651  00000-0  57078-3 0  9991
2 12706  82.8798 233.0539 0104309 144.8956 245.0256 13.81644497251345

Acompanhe COSMOS 1275 DEB em tempo real com AllMySat

Download on the App Store